Location: Unspecified
(0.0000°N, 0.0000°E)
Time: 03:28:34
(UTC+00:00)

Vanguard 1 - Pass Details

Date: 09 December 2017
Orbit: 649 x 3834 km, 34.3° (Epoch: 17 January)

Event Time Altitude Azimuth Distance (km) Brightness Sun altitude
Rises 02:07:16 0° 212° (SSW) 5,529 14.0 -50.0°
Reaches altitude 10° 02:12:57 10° 192° (SSW) 5,146 13.9 -48.9°
Maximum altitude 02:22:06 17° 156° (SSE) 5,401 14.1 -47.0°
Drops below altitude 10° 02:33:37 10° 122° (ESE) 6,666 14.9 -44.6°
Sets 02:43:04 0° 105° (ESE) 7,955 15.4 -42.6°
